{"data":{"norad_id":62627,"intl_designator":"2025-009U","name":"RAY 1.0","alt_names":[],"object_type":"PAYLOAD","status":"ACTIVE","operator":null,"country":"US","launch_date":"2025-01-14","launch_site_code":"AFWTR","launch_vehicle":null,"mission":null,"orbit_class":"UNKNOWN","rcs_meters":null,"size_class":null,"mass_kg":null,"dimensions":null,"purposes":[],"wikipedia_slug":null,"has_3d_model":false,"image_url":null,"decayed_at":null,"tle_current":{"epoch":"2026-05-25T04:29:47.967936Z","epoch_age_seconds":52826,"freshness":"FRESH","line1":"1 62627U 25009U   26145.18736074  .00002793  00000+0  13057-3 0  9992","line2":"2 62627  97.3989 223.9308 0008678   7.8093 352.3276 15.20576642 75180","mean_motion":15.20576642,"eccentricity":0.0008678,"inclination_deg":97.3989,"raan_deg":223.9308,"arg_perigee_deg":7.8093,"mean_anomaly_deg":352.3276,"bstar":0.00013057,"rev_number":7518,"period_min":94.700915443892,"perigee_km":498.1277100881,"apogee_km":510.07252082568,"semimajor_km":6882.2371154569,"source":"CELESTRAK","updated_at":"2026-05-25T13:38:03.131360Z"}}}